Location: Henderson
(36.0400°N, 114.9810°W)
Time: 05:07:02
(UTC-07:00)

Daily predictions for brighter satellites

Satellite Brightness Start Highest point End
(mag) Time Altitude Azimuth Time Altitude Azimuth Time Altitude Azimuth
ATLAS 2AS CENTAUR R/B 4.4 03:08:41 28° NNW 03:08:41 28° NNW 03:13:18 10° NNE
Cosmos 2344 3.9 03:16:59 64° NE 03:16:59 64° NE 03:23:56 10° NNE
Resurs 1-4 Rocket 4.4 03:13:49 10° NNE 03:15:12 19° NNE 03:15:12 19° NNE
Cosmos 2333 Rocket 3.3 03:31:48 10° N 03:37:10 40° ENE 03:42:28 10° SE
Okean O Rocket 3.9 03:35:54 10° NE 03:37:51 22° NE 03:37:51 22° NE
Lacrosse 5 3.0 03:57:13 40° NE 03:57:13 40° NE 04:00:29 10° NE
USA 215 3.7 03:51:36 10° SE 03:56:09 47° SSE 03:56:09 47° SSE
CZ-4B R/B 4.0 03:55:53 10° NNE 04:01:06 46° E 04:02:41 36° SE
Cosmos 2237 Rocket 2.8 03:56:22 10° NNW 04:01:53 52° ENE 04:07:21 10° SE
Meteor 2-8 Rocket 4.4 04:07:45 74° NNW 04:07:45 74° NNW 04:13:22 10° N
ATLAS 5 CENTAUR R/B 3.1 04:01:22 10° NNW 04:07:19 53° NE 04:13:39 10° SE
NOSS 3-2 (C) 4.2 04:07:50 10° NNW 04:15:27 72° ENE 04:23:34 10° SE
Cosmos 1980 3.7 04:10:01 10° NNW 04:15:43 77° ENE 04:21:24 10° SSE
ADEOS II 3.8 04:11:39 10° NE 04:16:15 30° E 04:20:49 10° SSE
ADEOS Rocket 3.9 04:09:51 10° NNE 04:16:43 52° E 04:22:52 10° S
Centaur D-1A AC-35 4.3 04:19:37 18° SSE 04:19:37 18° SSE 04:21:21 10° SE
Meteor 1-13 Rocket 4.1 04:20:25 74° WNW 04:20:25 74° WNW 04:26:02 10° N
RESURS DK-1 3.5 04:21:58 38° NNE 04:21:58 38° NNE 04:24:35 10° NNE
SL-16 R/B 3.8 04:16:21 10° N 04:21:27 33° ENE 04:26:32 10° SE
Cosmos 1346 Rocket 3.4 04:26:51 54° E 04:26:51 54° E 04:30:36 10° NNE
Cosmos 2112 Rocket 4.2 04:21:31 10° NNW 04:26:49 68° ENE 04:32:01 10° SSE
OTV 4 3.4 04:32:39 13° ESE 04:32:39 13° ESE 04:33:02 10° ESE
Cosmos 2227 Rocket 2.4 04:31:28 53° NW 04:31:28 53° NW 04:36:45 10° NNE
Cosmos 1680 Rocket 3.4 04:26:08 10° NNW 04:31:26 89° ENE 04:36:40 10° SSE
Gbstr 26 Del rocket 4.3 04:28:27 40° WNW 04:31:27 70° SW 04:39:31 10° SE
Cosmos 1727 Rocket 3.9 04:30:49 56° WSW 04:31:45 63° W 04:38:01 10° N
CZ-2D R/B 4.1 04:29:11 10° NNW 04:30:28 15° NNW 04:30:28 15° NNW
NOSS 3-4 (A) 3.9 04:35:45 43° WNW 04:36:20 44° NW 04:42:34 10° NNE
NOSS 3-4 (C) 3.8 04:35:50 44° WNW 04:36:27 45° NW 04:42:41 10° NNE
BREEZE M DEB (TANK) 4.2 04:36:40 21° NNW 04:37:04 21° N 04:41:46 10° NE
Cosmos 2219 Rocket 4.1 04:44:31 14° S 04:44:31 14° S 04:45:22 10° S
Cosmos 2297 Rocket 2.1 04:39:40 55° WSW 04:40:31 63° WNW 04:46:09 10° NNE
Cosmos 2173 Rocket 4.4 04:35:39 10° N 04:41:42 62° E 04:47:45 10° SSE
Okean-O 3.5 04:38:58 10° NNE 04:43:16 48° E 04:47:32 10° S
FALCON 9 R/B 3.7 04:40:19 26° SSW 04:43:57 49° SE 05:03:36 10° ENE
Cosmos 2058 Rocket 3.8 04:41:54 10° N 04:46:10 53° E 04:50:25 10° SSE
Cosmos 2298 Rocket 4.0 04:45:56 22° S 04:49:22 81° ESE 04:54:42 10° NNE
Cosmos 1459 Rocket 4.2 04:43:35 10° N 04:49:58 75° E 04:56:15 10° SSE
Resurs 1-4 Rocket 4.3 04:56:00 10° NW 04:56:17 11° NW 04:56:17 11° NW
Thor Agena Rocket 3.5 04:53:43 10° SSE 04:59:01 85° WSW 05:04:20 10° NNW
CZ-4B DEB 4.3 04:54:26 10° N 04:59:46 54° WNW 05:02:41 26° SW
NOSS 0 Rocket 4.3 04:54:32 10° NW 05:00:13 38° WSW 05:05:52 10° S
Cosmos 2150 Rocket 3.8 04:59:42 16° SSW 05:03:53 84° WNW 05:09:03 10° NNE
Cosmos 1025 Rocket 3.9 05:04:57 30° WNW 05:04:57 30° WNW 05:08:05 10° NNW
CZ-4B R/B 3.6 05:01:20 10° N 05:05:24 37° WNW 05:05:47 36° W
Meteor 1-31 Rocket 3.7 05:05:38 10° NNE 05:09:26 50° E 05:13:15 10° S
Meteor 1-15 Rocket 4.1 05:07:02 10° N 05:12:37 80° W 05:18:14 10° S
Meteor 2-15 4.4 05:07:16 10° S 05:13:19 88° E 05:19:24 10° N
Cosmos 1626 Rocket 4.0 05:11:29 10° S 05:15:48 62° E 05:20:07 10° NNE
Okean O Rocket 3.1 05:12:42 10° NNW 05:15:19 20° WNW 05:15:19 20° WNW
Okean 2 3.8 05:15:42 28° SW 05:17:17 39° W 05:21:12 10° N
Cosmos 2098 Rocket 3.3 05:16:11 10° N 05:20:12 79° E 05:25:22 10° S
Cosmos 2333 Rocket 3.1 05:16:38 10° NW 05:21:07 24° WSW 05:25:34 10° SSW
Cosmos 1606 Rocket 4.1 05:17:50 10° NNW 05:21:45 33° W 05:25:37 10° SSW
MOS 1 Rocket 3.4 05:21:50 10° NNE 05:26:42 90° W 05:31:50 10° SSW
Cosmos 1515 3.9 05:23:12 10° S 05:27:00 72° E 05:30:49 10° NNE
DELTA 2 R/B (1) 3.6 05:23:27 22° W 05:27:05 72° NNW 05:32:40 10° ENE
Feng Yun 1-1 Rocket 4.3 05:21:42 10° N 05:27:20 68° WNW 05:33:04 10° SSW
Tiangong 1 2.8 05:27:24 16° NW 05:28:51 22° N 05:31:19 10° NE
Delta 2 Rocket 3.0 05:27:47 24° W 05:29:53 70° S 05:33:21 10° ESE
CZ-3A R/B 3.9 05:24:24 12° WSW 05:30:56 22° SSW 05:34:01 10° SE
Cosmos 1666 3.5 05:27:53 10° NNW 05:31:12 28° W 05:34:29 10° SSW
COBE Rocket 3.7 05:26:27 10° N 05:31:14 82° WNW 05:35:53 10° SSW
Cosmos 1726 Rocket 4.3 05:28:55 10° NNW 05:32:43 29° W 05:36:29 10° SSW
Meteor 2-15 Rocket 4.4 05:26:47 10° SSW 05:32:50 76° W 05:38:56 10° N
Cosmos 1898 Rocket 4.0 05:30:03 12° SW 05:34:42 40° WNW 05:39:41 10° N
Cosmos 1602 Rocket 3.5 05:34:34 10° SSW 05:38:59 69° W 05:43:24 10° N
Lacrosse 5 3.7 05:36:26 12° WNW 05:39:01 17° NNW 05:42:19 10° N
CZ-4B R/B 4.4 05:37:22 10° NNW 05:41:19 21° WNW 05:44:34 13° WSW
Cosmos 1340 3.7 05:38:50 10° S 05:42:29 49° E 05:46:10 10° NNE
Cosmos 2061 Rocket 4.4 05:36:50 10° NNW 05:42:41 41° W 05:48:35 10° SSW
SKYMED 2 4.4 05:41:10 10° SSE 05:45:23 55° ENE 05:49:38 10° N
Cosmos 2237 Rocket 3.4 05:41:45 10° WNW 05:45:26 18° W 05:49:05 10° SW
Cosmos 192 4.4 05:40:52 10° NNW 05:45:50 85° ENE 05:50:45 10° SSE
Cosmos 1802 Rocket 4.3 05:40:14 10° NNW 05:46:00 43° W 05:51:43 10° SSW
SJ-6F 4.5 05:42:00 10° NNE 05:46:12 88° ESE 05:50:23 10° SSW
Cosmos 2227 4.2 05:42:06 10° SSW 05:47:49 71° WNW 05:53:35 10° NNE
USA 129 2.0 05:46:16 10° S 05:48:09 34° W 05:49:55 10° NNW
Cosmos 1937 Rocket 3.9 05:43:38 10° SW 05:48:32 41° WNW 05:53:31 10° N
ATLAS 5 CENTAUR R/B 3.4 05:46:47 10° WNW 05:51:49 26° WSW 05:57:05 10° SSW
Centaur D-1AR AC-36 3.7 05:53:37 10° SSW 05:54:01 10° S 05:54:22 10° S
ADEOS II 2.9 05:51:23 10° N 05:55:51 29° WNW 06:00:19 10° SW
NOAA 6 4.0 05:50:46 10° N 05:55:56 67° WNW 06:01:03 10° SSW
Cosmos 1725 Rocket 4.0 05:52:15 10° NNW 05:58:28 65° W 06:04:37 10° S
NOSS 2-2 (D) 3.9 05:57:35 10° SW 06:01:28 44° NW 06:05:53 10° NNE
ADEOS Rocket 4.2 05:56:05 10° N 06:01:40 26° WNW 06:06:50 10° WSW
Cosmos 2228 4.0 06:00:24 10° NW 06:03:59 25° W 06:07:33 10° SW
CENTAUR R/B 3.2 05:56:22 10° NW 06:04:22 80° WSW 06:12:42 10° SSE
SL-16 R/B 3.0 06:00:34 10° NW 06:05:26 30° WSW 06:10:17 10° SSW
Radarsat Rocket 4.1 05:58:57 10° N 06:05:37 72° WNW 06:11:36 10° SSW
OTV 4 2.2 06:03:53 10° WSW 06:05:39 16° SSW 06:07:25 10° S
Cosmos 1812 Rocket 3.6 06:02:24 10° NNW 06:06:48 61° W 06:11:11 10° S
Cosmos 972 Rocket 4.4 06:01:53 10° SSW 06:07:05 51° WNW 06:12:58 10° N
OAO 2 Rocket 3.7 06:04:27 10° WSW 06:09:43 66° SSE 06:15:00 10° E
Cosmos 1066 Rocket 4.2 06:06:16 10° SSW 06:11:49 67° W 06:17:33 10° N
